Date,TemperatureHighF,TemperatureAvgF,TemperatureLowF,DewpointHighF,DewpointAvgF,DewpointLowF,HumidityHigh,HumidityAvg,HumidityLow,PressureMaxIn,PressureMinIn,WindSpeedMaxMPH,WindSpeedAvgMPH,GustSpeedMaxMPH,PrecipitationSumIn
2013-7-1,90,72,57,62,55,50,89,59,28,30.16,30.04,3,0,8,0.00
2013-7-2,94,75,58,65,55,49,77,55,26,30.08,29.94,3,0,8,0.00
2013-7-3,86,73,62,56,50,40,76,49,24,29.98,29.92,4,1,11,0.00
2013-7-4,84,67,54,53,45,38,74,49,23,29.95,29.78,3,0,11,0.00
2013-7-5,77,66,52,49,43,39,71,47,27,29.83,29.72,2,0,9,0.00
2013-7-6,77,58,47,48,43,40,83,61,31,29.90,29.81,4,0,9,0.00
2013-7-7,79,64,48,49,44,41,84,53,27,29.90,29.82,3,0,10,0.00
2013-7-8,77,58,50,55,43,-100,79,60,29,30.06,29.83,4,0,10,0.05
2013-7-9,78,62,46,48,44,41,85,56,29,30.16,30.04,3,1,7,0.01
2013-7-10,87,66,49,51,43,-100,78,49,22,30.05,29.78,4,0,10,0.00
2013-7-11,79,66,56,52,41,26,73,43,22,29.84,29.76,3,1,14,0.02
2013-7-12,75,60,45,40,31,26,52,36,19,29.91,29.80,3,0,7,0.02
2013-7-13,74,63,51,44,35,29,66,38,20,30.10,29.90,4,0,12,0.01
2013-7-14,80,58,45,43,38,33,73,50,18,30.09,29.93,2,0,6,0.00
2013-7-15,83,62,48,43,35,28,55,40,14,29.98,29.89,3,0,8,0.00
2013-7-16,81,64,45,50,43,39,84,52,27,30.09,29.97,5,1,13,0.00
2013-7-17,85,68,53,61,49,41,76,55,27,30.10,29.93,4,1,12,0.01
2013-7-18,84,68,53,52,44,36,78,48,20,30.14,30.04,3,0,10,0.01
2013-7-19,85,69,53,50,41,36,68,40,21,30.09,29.96,4,0,9,0.00
2013-7-20,87,65,54,51,40,-100,69,44,16,30.01,29.82,3,0,9,0.00
2013-7-21,89,71,55,44,35,30,47,30,13,29.85,29.79,4,1,9,0.00
2013-7-22,88,70,55,47,38,31,59,35,14,29.96,29.82,3,1,11,0.00
2013-7-23,90,67,54,50,41,30,65,42,13,30.05,29.95,2,0,6,0.00
2013-7-24,90,72,54,50,40,35,63,35,17,30.03,29.94,3,0,6,0.00
2013-7-25,86,70,52,51,46,41,74,46,22,30.09,30.00,3,1,10,0.00
2013-7-26,91,71,54,48,35,24,60,32,10,30.10,29.96,4,0,9,0.00
2013-7-27,84,68,53,50,32,27,51,29,13,29.97,29.85,3,0,9,0.00
2013-7-28,79,64,48,43,36,31,58,37,19,29.89,29.79,3,0,10,0.00
2013-7-29,74,62,48,54,43,38,77,53,29,29.98,29.85,3,0,13,0.01
2013-7-30,79,63,48,49,43,37,81,53,24,30.11,29.97,2,0,7,0.01
2013-7-31,82,67,49,47,41,34,74,43,19,30.16,29.99,3,0,7,0.00